• In India
  • List of Countries
  • For 7 days
  • Water Temperature
  • Satellite Maps
  • Weather Map
  • Weather Widgets
  • user-avatar
    Login

    Hourly Weather Ali Bayramli

    Today, 24 September, Sunday

    Time Temperature Precipitation Wind Pressure Humidity
    00:00 +24°C° 0 mm 7 mps 761 mmHg 57%
    01:00 +24°C° 0 mm 6 mps 761 mmHg 59%
    02:00 +23°C° 0 mm 6 mps 761 mmHg 61%
    03:00 +23°C° 0 mm 5 mps 761 mmHg 63%
    04:00 +22°C° 0 mm 5 mps 761 mmHg 64%
    05:00 +22°C° 0 mm 4 mps 761 mmHg 66%
    06:00 +22°C° 0 mm 4 mps 762 mmHg 67%
    07:00 +23°C° 0 mm 4 mps 762 mmHg 62%
    08:00 +25°C° 0 mm 4 mps 762 mmHg 56%
    09:00 +27°C° 0 mm 4 mps 762 mmHg 50%
    10:00 +28°C° 0 mm 4 mps 762 mmHg 46%
    11:00 +29°C° 0 mm 4 mps 762 mmHg 43%
    12:00 +30°C° 0 mm 4 mps 762 mmHg 39%
    13:00 +30°C° 0 mm 5 mps 762 mmHg 40%
    14:00 +30°C° 0 mm 6 mps 762 mmHg 40%
    15:00 +30°C° 0 mm 6 mps 762 mmHg 41%
    16:00 +29°C° 0 mm 7 mps 762 mmHg 47%
    17:00 +27°C° 0 mm 7 mps 762 mmHg 52%
    18:00 +26°C° 0 mm 7 mps 762 mmHg 57%
    19:00 +26°C° 0 mm 6 mps 762 mmHg 58%
    20:00 +25°C° 0 mm 5 mps 762 mmHg 58%
    21:00 +25°C° 0 mm 5 mps 763 mmHg 58%
    22:00 +25°C° 0 mm 4 mps 763 mmHg 59%
    23:00 +23°C° 0 mm 4 mps 763 mmHg 60%

    Tomorrow, 25 September, Monday

    Time Temperature Precipitation Wind Pressure Humidity
    00:00 +24°C° 0 mm 3 mps 762 mmHg 60%
    01:00 +24°C° 0 mm 3 mps 762 mmHg 62%
    02:00 +22°C° 0 mm 3 mps 762 mmHg 64%
    03:00 +22°C° 0 mm 3 mps 762 mmHg 66%
    04:00 +23°C° 0 mm 2 mps 762 mmHg 67%
    05:00 +21°C° 0 mm 2 mps 762 mmHg 68%
    06:00 +21°C° 0 mm 2 mps 762 mmHg 69%
    07:00 +24°C° 0 mm 2 mps 763 mmHg 62%
    08:00 +25°C° 0 mm 2 mps 763 mmHg 55%
    09:00 +27°C° 0 mm 2 mps 763 mmHg 48%
    10:00 +28°C° 0 mm 2 mps 763 mmHg 43%
    11:00 +29°C° 0 mm 2 mps 763 mmHg 38%
    12:00 +30°C° 0 mm 2 mps 762 mmHg 34%
    13:00 +31°C° 0 mm 3 mps 762 mmHg 32%
    14:00 +32°C° 0 mm 5 mps 762 mmHg 31%
    15:00 +33°C° 0 mm 6 mps 762 mmHg 29%
    16:00 +30°C° 0 mm 7 mps 762 mmHg 33%
    17:00 +29°C° 0 mm 8 mps 762 mmHg 37%
    18:00 +27°C° 0 mm 9 mps 762 mmHg 41%
    19:00 +27°C° 0 mm 8 mps 762 mmHg 45%
    20:00 +26°C° 0 mm 8 mps 763 mmHg 48%
    21:00 +24°C° 0 mm 8 mps 763 mmHg 52%
    22:00 +24°C° 0 mm 8 mps 763 mmHg 53%
    23:00 +23°C° 0 mm 7 mps 763 mmHg 55%

    Day after tomorrow, 26 September, Tuesday

    Time Temperature Precipitation Wind Pressure Humidity
    00:00 +23°C° 0 mm 7 mps 763 mmHg 57%
    01:00 +22°C° 0 mm 6 mps 763 mmHg 59%
    02:00 +22°C° 0 mm 6 mps 762 mmHg 61%
    03:00 +21°C° 0 mm 5 mps 762 mmHg 63%
    04:00 +21°C° 0 mm 5 mps 762 mmHg 65%
    05:00 +21°C° 0 mm 5 mps 762 mmHg 66%
    06:00 +20°C° 0 mm 5 mps 762 mmHg 68%
    07:00 +22°C° 0 mm 5 mps 763 mmHg 63%
    08:00 +23°C° 0 mm 5 mps 763 mmHg 58%
    09:00 +25°C° 0 mm 5 mps 763 mmHg 52%
    10:00 +25°C° 0 mm 5 mps 763 mmHg 50%
    11:00 +26°C° 0 mm 5 mps 762 mmHg 48%
    12:00 +26°C° 0 mm 5 mps 762 mmHg 46%
    13:00 +26°C° 0 mm 6 mps 762 mmHg 47%
    14:00 +26°C° 0 mm 6 mps 762 mmHg 48%
    15:00 +26°C° 0 mm 7 mps 762 mmHg 49%
    16:00 +24°C° 0 mm 7 mps 762 mmHg 51%
    17:00 +23°C° 0 mm 7 mps 762 mmHg 52%
    18:00 +23°C° 0 mm 7 mps 762 mmHg 54%
    19:00 +22°C° 0 mm 7 mps 762 mmHg 55%
    20:00 +22°C° 0 mm 6 mps 763 mmHg 56%
    21:00 +22°C° 0 mm 6 mps 763 mmHg 57%
    22:00 +22°C° 0 mm 6 mps 763 mmHg 58%
    23:00 +21°C° 0 mm 6 mps 762 mmHg 59%

    27 September, Wednesday

    Time Temperature Precipitation Wind Pressure Humidity
    00:00 +21°C° 0 mm 5 mps 762 mmHg 61%
    01:00 +21°C° 0 mm 5 mps 762 mmHg 61%
    02:00 +21°C° 0 mm 5 mps 762 mmHg 62%
    03:00 +21°C° 0 mm 5 mps 761 mmHg 62%
    04:00 +21°C° 0 mm 4 mps 761 mmHg 62%
    05:00 +21°C° 0 mm 4 mps 761 mmHg 63%
    06:00 +21°C° 0 mm 4 mps 761 mmHg 63%
    07:00 +21°C° 0 mm 4 mps 762 mmHg 63%
    08:00 +21°C° 0 mm 4 mps 762 mmHg 63%
    09:00 +21°C° 0 mm 4 mps 762 mmHg 63%
    10:00 +21°C° 0 mm 4 mps 762 mmHg 63%
    11:00 +21°C° 0 mm 5 mps 762 mmHg 63%
    12:00 +21°C° 0 mm 5 mps 762 mmHg 63%
    13:00 +22°C° 0 mm 6 mps 762 mmHg 62%
    14:00 +22°C° 0 mm 6 mps 761 mmHg 61%
    15:00 +22°C° 0 mm 6 mps 761 mmHg 61%
    16:00 +22°C° 0 mm 6 mps 762 mmHg 62%
    17:00 +21°C° 0 mm 7 mps 762 mmHg 63%
    18:00 +21°C° 0 mm 7 mps 762 mmHg 64%
    19:00 +21°C° 0.1 mm 7 mps 763 mmHg 65%
    20:00 +21°C° 0.1 mm 7 mps 763 mmHg 67%
    21:00 +20°C° 0.1 mm 7 mps 763 mmHg 68%
    22:00 +20°C° 0.3 mm 7 mps 763 mmHg 69%
    23:00 +20°C° 0.3 mm 6 mps 763 mmHg 70%

    28 September, Thursday

    Time Temperature Precipitation Wind Pressure Humidity
    00:00 +20°C° 0.3 mm 6 mps 763 mmHg 71%
    01:00 +20°C° 0.3 mm 6 mps 763 mmHg 72%
    02:00 +20°C° 0.3 mm 6 mps 763 mmHg 73%
    03:00 +20°C° 0.3 mm 6 mps 763 mmHg 74%
    04:00 +18°C° 0.3 mm 7 mps 763 mmHg 75%
    05:00 +18°C° 0.3 mm 7 mps 763 mmHg 75%
    06:00 +18°C° 0.3 mm 7 mps 764 mmHg 75%
    07:00 +18°C° 0.4 mm 7 mps 764 mmHg 75%
    08:00 +18°C° 0.4 mm 8 mps 764 mmHg 75%
    09:00 +18°C° 0.4 mm 8 mps 765 mmHg 75%
    10:00 +18°C° 0.5 mm 8 mps 765 mmHg 74%
    11:00 +18°C° 0.5 mm 8 mps 765 mmHg 73%
    12:00 +17°C° 0.5 mm 8 mps 765 mmHg 73%
    13:00 +17°C° 0.4 mm 8 mps 765 mmHg 72%
    14:00 +17°C° 0.4 mm 8 mps 765 mmHg 72%
    15:00 +17°C° 0.4 mm 7 mps 765 mmHg 72%
    16:00 +17°C° 0.2 mm 7 mps 765 mmHg 72%
    17:00 +17°C° 0.2 mm 7 mps 766 mmHg 73%
    18:00 +17°C° 0.2 mm 7 mps 766 mmHg 73%
    19:00 +17°C° 0.2 mm 7 mps 766 mmHg 73%
    20:00 +17°C° 0.2 mm 7 mps 766 mmHg 73%
    21:00 +17°C° 0.2 mm 7 mps 766 mmHg 73%
    22:00 +17°C° 0.2 mm 7 mps 766 mmHg 71%
    23:00 +17°C° 0.2 mm 6 mps 766 mmHg 70%

    29 September, Friday

    Time Temperature Precipitation Wind Pressure Humidity
    00:00 +17°C° 0.2 mm 6 mps 765 mmHg 69%
    01:00 +17°C° 0.1 mm 6 mps 765 mmHg 67%
    02:00 +19°C° 0.1 mm 5 mps 765 mmHg 66%
    03:00 +19°C° 0.1 mm 5 mps 765 mmHg 64%
    04:00 +19°C° 0.1 mm 4 mps 765 mmHg 63%
    05:00 +19°C° 0.1 mm 4 mps 765 mmHg 61%
    06:00 +19°C° 0.1 mm 4 mps 765 mmHg 60%
    07:00 +19°C° 0 mm 4 mps 765 mmHg 59%
    08:00 +20°C° 0 mm 4 mps 765 mmHg 57%
    09:00 +20°C° 0 mm 4 mps 765 mmHg 56%
    10:00 +21°C° 0 mm 4 mps 765 mmHg 55%
    11:00 +21°C° 0 mm 3 mps 764 mmHg 54%
    12:00 +22°C° 0 mm 3 mps 764 mmHg 53%
    13:00 +22°C° 0 mm 4 mps 764 mmHg 52%
    14:00 +22°C° 0 mm 4 mps 764 mmHg 51%
    15:00 +22°C° 0 mm 4 mps 763 mmHg 51%
    16:00 +22°C° 0 mm 4 mps 764 mmHg 54%
    17:00 +21°C° 0 mm 4 mps 764 mmHg 56%
    18:00 +21°C° 0 mm 4 mps 764 mmHg 59%
    19:00 +21°C° 0 mm 4 mps 764 mmHg 59%
    20:00 +21°C° 0 mm 3 mps 764 mmHg 59%
    21:00 +21°C° 0 mm 3 mps 764 mmHg 60%
    22:00 +20°C° 0 mm 3 mps 763 mmHg 59%
    23:00 +20°C° 0 mm 3 mps 763 mmHg 58%
    Show more